Location: Chassagnes
(44.4047°N, 4.1657°E)
Time: 12:47:18
(UTC+00:00)

IRS-1C Rocket - Pass Details

Date: 27 October 2020
Orbit: 801 x 805 km, 99.0° (Epoch: 23 November)

Event Time Altitude Azimuth Distance (km) Brightness Sun altitude
Rises 17:39:39 0° 158° (SSE) 3,301 7.1 -11.3°
Reaches altitude 10° 17:41:58 10° 157° (SSE) 2,375 6.4 -11.8°
Maximum altitude 17:47:12 74° 73° (ENE) 840 4.0 -12.7°
Drops below altitude 10° 17:52:29 10° 349° (N) 2,394 6.6 -13.6°
Sets 17:54:50 0° 348° (NNW) 3,330 7.4 -14.0°
